EDT,Max TemperatureF,Mean TemperatureF,Min TemperatureF,Max Dew PointF,MeanDew PointF,Min DewpointF,Max Humidity, Mean Humidity, Min Humidity, Max Sea Level PressureIn, Mean Sea Level PressureIn, Min Sea Level PressureIn, Max VisibilityMiles, Mean VisibilityMiles, Min VisibilityMiles, Max Wind SpeedMPH, Mean Wind SpeedMPH, Max Gust SpeedMPH,PrecipitationIn, CloudCover, Events, WindDirDegrees
2012-3-1,68,58,47,61,43,31,87,57,26,29.94,29.87,29.81,10,8,1,18,9,22,0.42,2,Rain-Thunderstorm,248
2012-3-2,72,59,46,61,52,37,93,80,66,29.84,29.69,29.57,10,8,1,46,11,58,0.89,7,Rain-Thunderstorm,208
2012-3-3,58,50,42,55,33,20,93,61,28,29.91,29.80,29.64,10,9,2,18,7,22,0.32,4,Rain,296
2012-3-4,47,41,34,27,23,18,70,54,37,29.99,29.93,29.83,10,10,9,25,10,33,T,5,,262
2012-3-5,50,42,34,33,22,15,64,45,26,30.48,30.25,29.84,10,10,10,41,12,52,T,3,Rain,275
2012-3-6,64,45,26,27,24,18,84,54,23,30.56,30.47,30.38,10,10,10,9,2,10,0.00,0,,281
2012-3-7,68,53,38,45,36,22,70,51,32,30.49,30.41,30.30,10,10,10,21,9,28,0.00,2,,195
2012-3-8,70,60,50,56,51,44,100,74,47,30.31,30.18,30.04,10,7,2,22,8,30,1.29,6,Rain,14
2012-3-9,57,49,41,54,35,24,93,62,30,30.42,30.30,30.14,10,10,5,16,9,22,0.09,3,Rain,358
2012-3-10,63,49,34,32,26,24,64,44,23,30.47,30.40,30.34,10,10,10,15,6,17,0.00,0,,35
2012-3-11,70,52,34,40,33,28,89,58,26,30.48,30.38,30.28,10,10,10,12,2,16,0.00,1,,119
2012-3-12,67,60,53,55,49,40,93,72,51,30.30,30.23,30.16,10,10,10,18,7,23,0.02,7,Rain,213
2012-3-13,76,67,57,63,56,51,97,70,43,30.24,30.18,30.11,10,9,6,16,6,20,0.01,5,Rain,239
2012-3-14,79,66,52,57,51,48,89,62,35,30.26,30.19,30.14,10,10,9,10,2,14,0.00,1,,221
2012-3-15,82,68,54,61,55,48,86,63,39,30.34,30.21,30.11,10,8,1,32,4,38,0.73,4,Rain-Thunderstorm,243
2012-3-16,77,66,54,59,56,54,100,75,50,30.31,30.18,30.11,10,9,2,28,5,36,0.05,4,Rain-Thunderstorm,205
2012-3-17,76,65,53,61,56,52,100,75,50,30.29,30.20,30.13,10,5,0,8,2,12,0.21,6,Fog-Rain,167
2012-3-18,80,70,59,60,57,52,90,66,42,30.27,30.19,30.11,10,10,10,17,4,21,0.21,4,Rain-Thunderstorm,56
2012-3-19,82,69,55,58,53,49,93,63,33,30.20,30.13,30.06,10,10,9,13,2,15,0.00,1,,251
2012-3-20,85,71,57,58,56,51,86,62,37,30.15,30.09,30.04,10,10,10,20,3,22,0.00,1,Thunderstorm,35
2012-3-21,82,69,56,58,55,50,93,66,39,30.20,30.13,30.07,10,10,7,14,2,16,0.00,2,,26
2012-3-22,80,68,56,61,57,51,93,69,45,30.17,30.12,30.08,10,10,8,18,4,26,0.01,3,Rain-Thunderstorm,11
2012-3-23,73,67,60,65,61,55,93,83,73,30.08,29.99,29.87,10,9,1,21,4,26,0.13,6,Rain,206
2012-3-24,67,62,56,57,53,48,93,73,52,29.90,29.86,29.82,10,8,1,22,5,32,0.61,7,Rain-Thunderstorm,204
2012-3-25,71,60,49,51,49,47,100,72,44,29.95,29.88,29.85,10,10,6,16,5,21,0.01,5,Rain,327
2012-3-26,76,65,54,53,50,43,86,59,31,30.12,30.03,29.96,10,10,10,16,6,21,0.00,2,,20
2012-3-27,76,63,49,50,44,35,72,55,37,30.23,30.15,30.10,10,10,10,15,7,17,0.00,0,,326
2012-3-28,77,66,54,58,52,45,77,64,50,30.14,30.05,29.94,10,10,10,22,11,31,0.12,1,Rain-Thunderstorm,231
2012-3-29,79,69,58,61,55,50,84,67,50,30.01,29.95,29.90,10,8,1,29,5,40,0.68,3,Rain-Thunderstorm,221
2012-3-30,77,67,56,61,58,54,93,74,54,29.97,29.90,29.85,10,9,5,29,5,35,0.02,4,Rain-Thunderstorm,216
2012-3-31,72,65,58,61,59,55,100,81,61,29.90,29.85,29.80,10,9,6,15,5,17,T,6,Rain-Thunderstorm,234